Location: Ch�ze
(42.9000°N, 0.0333°W)
Time: 00:10:50
(UTC+00:00)

Cosmos 44 - Pass Details

Date: 24 January 2021
Orbit: 572 x 789 km, 65.1° (Epoch: 24 February)

Event Time Altitude Azimuth Distance (km) Brightness Sun altitude
Rises 18:18:31 0° 214° (SW) 2,945 7.3 -13.9°
Reaches altitude 10° 18:20:44 10° 215° (SW) 2,072 6.5 -14.3°
Maximum altitude 18:25:27 83° 303° (WNW) 705 3.3 -15.2°
Enters shadow 18:29:48 14° 32° (NNE) 1,939 5.2 -15.9°
